COSMOS 385

导读 | 星芒AI

COSMOS 385 是苏联于1970年12月21日发射的一颗电子侦察卫星,用于监听外国的雷达和通信信号。该卫星属于“流星”系列,运行在近地轨道,任务是收集电子情报以支持苏联的军事和战略分析。COSMOS 385 在轨运行数月后失联,最终再入大气层销毁。尽管任务时间较短,但它体现了冷战时期苏联在空间侦察领域的技术能力与战略意图。

基本信息
目录编号:
4799
目录名称:
COSMOS 385
国际标识:
1970-108A
轨道中心:
EARTH
卫星名称:
COSMOS 385
卫星全名:
--
卫星状态:
在轨 (已飞行20045 天)
发射日期:
1970-12-12 UTC
国别 :
俄罗斯(独联体) (CIS)
星等 :
--
轨道信息
数据来源 国际轨道数据
星历时间: 2025-10-28T21:22:21+0800
18小时前
查看轨道信息
半长轴: 7352.828km
偏心率: 0.0003176
轨道倾角: 74.022°
近地点辐角 37.978°
升交点赤经 55.597°
平近点角 334.639°
近地点: 972.357km
远地点: 977.029km
周期: 104.578分钟
每日圈数: 13.769596
详细信息
使用方式:
暂无
2D轨道图
3D轨道图
轨道高度分析图
轨道倾角分析图
轨道综合分析图
查看轨道综合分析图